Location: Roy
(47.3334°N, 108.9587°W)
Time: 18:47:03
(UTC+00:00)

N. Korean satellite - Visible Passes

Search period start: 21 January 2022 00:00
Search period end: 31 January 2022 00:00
Orbit: 447 x 491 km, 97.3° (Epoch: 21 January)

Date Brightness Start Highest point End Pass type
(mag) Time Alt. Az. Time Alt. Az. Time Alt. Az.
21 Jan 10.0 11:25:01 10° ENE 11:25:24 11° ENE 11:25:24 11° ENE visible
21 Jan 6.8 12:56:26 10° N 12:59:27 48° NW 12:59:27 48° NW visible
22 Jan 7.1 12:27:16 10° NNE 12:30:22 56° NE 12:30:22 56° NE visible
22 Jan 8.5 14:02:13 10° NW 14:03:31 12° WNW 14:04:26 11° WNW visible
23 Jan 9.7 00:38:20 10° SW 00:40:35 16° W 00:42:53 10° NW visible
23 Jan 8.6 11:58:25 10° NE 12:01:17 28° E 12:01:17 28° E visible
23 Jan 7.8 13:31:46 10° NNW 13:34:39 22° WNW 13:35:21 21° W visible
24 Jan 9.7 11:30:15 10° ENE 11:32:12 14° E 11:32:12 14° E visible
24 Jan 6.8 13:02:08 10° N 13:05:39 46° WNW 13:06:16 41° WSW visible
25 Jan 6.6 12:32:51 10° NNE 12:36:30 77° ESE 12:37:11 56° S visible
25 Jan 8.6 14:08:37 10° NW 14:09:04 10° WNW 14:09:30 10° WNW visible
26 Jan 9.8 00:44:16 10° SW 00:46:13 14° W 00:48:12 10° NW visible
26 Jan 8.2 12:03:53 10° NNE 12:07:14 33° E 12:08:06 29° SE visible
26 Jan 7.9 13:37:29 10° NNW 13:40:10 20° WNW 13:42:09 13° WSW visible
27 Jan 9.5 11:35:29 10° NE 11:37:50 16° E 11:39:02 14° ESE visible
27 Jan 7.0 13:07:43 10° N 13:11:09 39° WNW 13:13:06 21° SW visible
28 Jan 6.5 12:38:20 10° NNE 12:42:00 90° SW 12:44:03 25° SSW visible
29 Jan 10.0 00:50:10 10° WSW 00:51:43 12° W 00:53:19 10° WNW visible
29 Jan 7.9 12:09:16 10° NNE 12:12:43 39° E 12:15:02 18° SSE visible
29 Jan 8.1 13:43:06 10° NNW 13:45:34 17° WNW 13:48:01 10° WSW visible
30 Jan 9.3 11:40:40 10° NE 11:43:17 18° E 11:45:53 10° SE visible
30 Jan 7.2 13:13:12 10° N 13:16:32 34° WNW 13:19:50 10° SW visible
